Weather History for Wroclaw Ii, Poland

Change the Weather History Date:

Friday, September 13, 2013

  Actual Average Record
Temperature  
Mean Temperature 56 °F -  
Max Temperature 63 °F 63 °F - ()
Min Temperature 48 °F 45 °F - ()
Degree Days  
Heating Degree Days 10    
Growing Degree Days 6 (Base 50)    
Moisture  
Dew Point 52 °F    
Average Humidity 87    
Maximum Humidity 100    
Minimum Humidity 64    
Precipitation  
Precipitation 0.08 in 0.06 in - ()
Sea Level Pressure  
Sea Level Pressure 30.00 in    
Wind  
Wind Speed 7 mph ()    
Max Wind Speed 14 mph    
Max Gust Speed -    
Visibility 5.1 miles    
Events Rain    
T = Trace of Precipitation, MM = Missing Value Source: Averaged Metar Reports

Daily Weather History Graph

Daily Weather History Graph

Search for Another Location

Airport:

Trip Planner

Search our weather history database for the weather conditions in past years. The results will help you decide how hot, cold, wet, or windy it might be!

Date:

Astronomy

Sep. 13, 2013 Rise Set
Actual Time 6:24 AM CEST 7:11 PM CEST
Civil Twilight 5:51 AM CEST 7:44 PM CEST
Nautical Twilight 5:10 AM CEST 8:24 PM CEST
Astronomical Twilight 4:28 AM CEST 9:06 PM CEST
Moon 3:13 PM CEST (9/13) No Moon Set
Length of Visible Light 13h 53m
Length of Day
12h 46m
First Quarter, 58% of the Moon is Illuminated
Sep 13
First Quarter
Sep 19
Full
Sep 27
Last Quarter
Oct 5
New
Oct 12
First Quarter

Hourly Weather History & Observations

Time (CEST) Temp. Dew Point Humidity Pressure Visibility Wind Dir Wind Speed Gust Speed Precip Events Conditions
12:00 AM 53.6 °F 51.8 °F 94% 29.98 in 6.2 mi WNW 6.9 mph - N/A   Mostly Cloudy
12:30 AM 53.6 °F 51.8 °F 94% 29.98 in 6.2 mi WNW 4.6 mph - N/A   Scattered Clouds
1:00 AM 53.6 °F 51.8 °F 94% 29.98 in 6.2 mi WNW 4.6 mph - N/A   Partly Cloudy
1:30 AM 51.8 °F 50.0 °F 94% 29.98 in - WNW 6.9 mph - N/A   Clear
2:00 AM 51 °F 50 °F 95% 29.99 in 12 mi West 2.2 mph - -   Partly Cloudy
2:00 AM 51.8 °F 50.0 °F 94% 29.98 in 6.2 mi WNW 5.8 mph - N/A   Scattered Clouds
2:30 AM 51.8 °F 50.0 °F 94% 29.98 in 6.2 mi West 5.8 mph - N/A   Scattered Clouds
3:00 AM 51.8 °F 50.0 °F 94% 29.98 in - West 6.9 mph - N/A   Clear
3:30 AM 51.8 °F 50.0 °F 94% 29.98 in - WNW 6.9 mph - N/A   Clear
4:00 AM 51.8 °F 50.0 °F 94% 29.98 in - WNW 4.6 mph - N/A   Clear
4:30 AM 51.8 °F 50.0 °F 94% 29.98 in - West 6.9 mph - N/A   Clear
5:00 AM 51.8 °F 50.0 °F 94% 29.98 in - NW 4.6 mph - N/A   Clear
5:30 AM 50.0 °F 48.2 °F 94% 29.98 in - Variable 2.3 mph - N/A   Clear
6:00 AM 50.0 °F 48.2 °F 94% 29.98 in - NW 3.5 mph - N/A   Clear
6:30 AM 50.0 °F 48.2 °F 94% 30.01 in - West 3.5 mph - N/A   Clear
7:00 AM 50.0 °F 48.2 °F 94% 30.01 in 5.0 mi North 3.5 mph - N/A   Mostly Cloudy
7:30 AM 51.8 °F 50.0 °F 94% 30.01 in 3.7 mi West 4.6 mph - N/A   Overcast
8:00 AM 51 °F 51 °F 100% 30.02 in 2 mi WNW 6.7 mph - -   Mist
8:00 AM 51.8 °F 50.0 °F 94% 30.01 in 2.5 mi WNW 6.9 mph - N/A   Overcast
8:30 AM 53.6 °F 51.8 °F 94% 30.01 in 2.5 mi WNW 9.2 mph - N/A   Overcast
9:00 AM 53.6 °F 51.8 °F 94% 30.01 in 2.8 mi NW 10.4 mph - N/A   Overcast
9:30 AM 55.4 °F 53.6 °F 94% 30.01 in 2.5 mi NW 8.1 mph - N/A   Overcast
10:00 AM 55.4 °F 53.6 °F 94% 30.04 in 2.8 mi NW 8.1 mph - N/A   Mostly Cloudy
10:30 AM 57.2 °F 53.6 °F 88% 30.04 in 3.7 mi NW 8.1 mph - N/A   Mostly Cloudy
11:00 AM 56 °F 53 °F 86% 30.04 in 4 mi WNW 6.7 mph - -   Mist
11:00 AM 57.2 °F 53.6 °F 88% 30.04 in 4.3 mi WNW 8.1 mph - N/A   Mostly Cloudy
11:30 AM 57.2 °F 53.6 °F 88% 30.04 in 4.3 mi WNW 10.4 mph - N/A   Mostly Cloudy
12:00 PM 60.8 °F 53.6 °F 77% 30.04 in 5.0 mi WNW 10.4 mph - N/A   Mostly Cloudy
12:30 PM 60.8 °F 53.6 °F 77% 30.04 in 6.2 mi NW 10.4 mph - N/A   Mostly Cloudy
1:00 PM 62.6 °F 53.6 °F 72% 30.04 in 6.2 mi NW 11.5 mph - N/A   Scattered Clouds
1:30 PM 60.8 °F 53.6 °F 77% 30.04 in 6.2 mi WNW 10.4 mph - N/A   Partly Cloudy
2:00 PM 61 °F 52 °F 65% 30.03 in 22 mi WNW 6.7 mph - -   Scattered Clouds
2:00 PM 60.8 °F 51.8 °F 72% 30.04 in 6.2 mi NW 10.4 mph - N/A   Partly Cloudy
2:30 PM 62.6 °F 53.6 °F 72% 30.01 in 6.2 mi WNW 8.1 mph - N/A   Partly Cloudy
3:00 PM 62.6 °F 51.8 °F 68% 30.01 in 6.2 mi NW 11.5 mph - N/A   Partly Cloudy
3:30 PM 62.6 °F 51.8 °F 68% 30.01 in 6.2 mi NW 10.4 mph - N/A   Partly Cloudy
4:00 PM 62.6 °F 51.8 °F 68% 30.01 in 6.2 mi WNW 11.5 mph - N/A   Partly Cloudy
4:30 PM 62.6 °F 51.8 °F 68% 30.01 in 6.2 mi WNW 9.2 mph - N/A   Partly Cloudy
5:00 PM 61 °F 52 °F 64% 30.00 in 25 mi WNW 8.9 mph - -   Scattered Clouds
5:00 PM 62.6 °F 51.8 °F 68% 30.01 in 6.2 mi WNW 13.8 mph - N/A   Partly Cloudy
5:30 PM 60.8 °F 53.6 °F 77% 30.01 in 6.2 mi WNW 11.5 mph - N/A Rain Light Rain Showers
6:00 PM 57.2 °F 51.8 °F 82% 30.01 in 6.2 mi WNW 9.2 mph - N/A Rain Light Rain Showers
6:30 PM 55.4 °F 51.8 °F 88% 30.01 in 6.2 mi WNW 8.1 mph - N/A Rain Light Rain
7:00 PM 55.4 °F 53.6 °F 94% 30.01 in 5.6 mi West 8.1 mph - N/A Rain Light Rain
7:30 PM 55.4 °F 53.6 °F 94% 29.98 in 6.2 mi West 10.4 mph - N/A Rain Light Rain
8:00 PM 55 °F 54 °F 93% 29.99 in 5 mi WSW 11.2 mph - - Rain Light Rain
8:00 PM 55.4 °F 53.6 °F 94% 29.98 in 6.2 mi West 9.2 mph - N/A Rain Light Rain
8:30 PM 55.4 °F 53.6 °F 94% 29.98 in 4.3 mi West 8.1 mph - N/A Rain Rain
9:00 PM 55.4 °F 53.6 °F 94% 29.98 in 3.7 mi WSW 10.4 mph - N/A Rain Rain
9:30 PM 55.4 °F 53.6 °F 94% 29.95 in 3.7 mi West 11.5 mph - N/A Rain Light Rain
10:00 PM 55.4 °F 53.6 °F 94% 29.95 in 3.7 mi West 12.7 mph - N/A Rain Light Rain
10:30 PM 55.4 °F 53.6 °F 94% 29.95 in 4.3 mi West 13.8 mph - N/A Rain Light Rain
11:00 PM 55 °F 54 °F 96% 29.94 in 4 mi WNW 8.9 mph - - Rain Rain
11:00 PM 55.4 °F 53.6 °F 94% 29.92 in 3.7 mi WNW 12.7 mph - N/A Rain Rain
11:30 PM 55.4 °F 53.6 °F 94% 29.92 in 3.7 mi West 12.7 mph - N/A Rain Light Rain